Погода в Гремяче

Украина / Черниговская область     52°20′26″N   33°17′18″E
темп.,
°C
ветер,
м/с
пор.,
м/с
влажн.,
%
обл.,
%
осадки,
мм/ч
давл.,
гПа
погр.,
м
4 марта, чт
чт423:00−1з59880 0.0 1019259
02:00−1зюз59870 0.0 1017257
05:00−4юз511880 0.0 1014251
08:00−2юз714910 0.0 1011371
11:000зюз61010013 0.0 1009443
14:00+2зюз61010047 0.0 1006526
17:00+2зюз41199100 0.0 1005401
20:00+1зсз41196100 0.1 1005473
5 марта, пт
пт523:00−1зсз4109199 0.0 1006346
02:00−2сз4109498 0.0 1007371
05:00−3сз338975 0.0 100966
08:00−3ссз358957 0.0 1011223
11:00−1сз348156 0.0 1012507
14:00−1сз347678 0.0 1013780
17:00−2сз2383100 0.0 1014116
20:00−3сз2485100 0.0 1016100
6 марта, сб
сб623:00−4зсз3685100 0.0 1017195
02:00−5сз51082100 0.0 1018415
05:00−6сз5108020 0.0 1018419
08:00−6сз6107910 0.0 1019542
11:00−3сз68670 0.0 1020973
14:00−2сз68610 0.0 10201392
17:00−3сз487325 0.0 1021604
20:00−5зсз387912 0.0 1022298
7 марта, вс
вс723:00−5зюз48780 0.0 1022212
02:00−5зюз612790 0.0 1020379
05:00−5юз7157343 0.0 1017572
08:00−4юз10176972 0.0 1014881
11:00−1зюз121873100 0.0 10091265
14:000зюз111781100 0.1 10081280
17:00−2ссз5996100 1.8 1007553
20:00−4юв3396100 3.9 1007174
8 марта, пн
пн823:00−1зюз91787100 1.1 10051179
02:00−3зсз8157692 1.5 1005691
05:00−5зсз7158045 0.0 1006855
08:00−5зсз7128240 0.0 10091093
11:00−4зсз697353 0.0 10111081
14:00−3зсз577170 0.1 10121104
17:00−5сз228192 0.0 101272
20:00−7ссз118569 0.0 101421